Regional Weather Roundup
Issued by NWS New Orleans/Baton Rouge, LA

Home | Current Version | Previous Version | Text Only | Print | Product List | Glossary Off
Versions: 1 2 3 4 5 6 7 8 9 10 11 12 13 14 15 16 17 18 19 20 21 22 23 24 25 26 27 28 29 30 31 32 33 34 35 36 37 38 39 40 41 42 43 44 45 46 47 48 49 50

259
ASUS44 KLIX 192110
RWRLIX
NEW ORLEANS REGIONAL WEATHER ROUNDUP
NATIONAL WEATHER SERVICE NEW ORLEANS LA
400 PM CDT SUN OCT 19 2014

NOTE: "FAIR" INDICATES FEW OR NO CLOUDS BELOW 12,000 FEET WITH NO
      SIGNIFICANT WEATHER AND/OR OBSTRUCTIONS TO VISIBILITY.
      SKY/WX - SKY CONDITION AND SIGNIFICANT WEATHER.
      TMP - AIR TEMPERATURE.     DP    - DEWPOINT TEMPERATURE.
      RH  - RELATIVE HUMIDITY.   PRES  - PRESSURE.
      HI  - HEAT INDEX.          WCI   - WIND CHILL INDEX.

*  THESE STATIONS ARE NOT NWS OR FAA STATIONS AND ARE NOT UNDER
   NWS QUALITY CONTROL.

LAZ038-040-048-061>063-065>067-069-192200-
SOUTHEAST LOUISIANA

CITY           SKY/WX    TMP DP  RH WIND       PRES   REMARKS
N.O. AUDUBON     N/A     76  61  59 MISG        N/A
N.O. INTL ARPT MOSUNNY   76  56  49 NE10      30.05F
N.O. LAKEFRONT SUNNY     75  55  49 E5        30.06F
N.O. DOWNTOWN*   N/A     73  54  49 E3        30.06F
SLIDELL        SUNNY     77  54  44 NE6       30.05F
BATON ROUGE    SUNNY     77  52  41 NE6       30.05F
BOOTHVILLE     SUNNY     75  65  70 NE12      30.05S
BELLE CHASSE   MOSUNNY   75  57  53 E8        30.04F
BOGALUSA*        N/A     77  46  33 N5        30.07F
NEW ROADS*       N/A     75  53  45 N3        30.06S
GONZALES*        N/A     76  56  50 E5        30.04F
HAMMOND*       SUNNY     79  50  36 CALM      30.07S
HOUMA*         NOT AVBL
PORT FOURCHON* PTCLDY    77  64  65 E12       30.06F

$$

MSZ070-080>082-192200-
SOUTHERN MISSISSIPPI

CITY           SKY/WX    TMP DP  RH WIND       PRES   REMARKS
MCCOMB         SUNNY     74  43  32 N5        30.07F
GULFPORT       SUNNY     74  52  46 SE3       30.04F
BILOXI         SUNNY     74  53  46 S7        30.05F
PASCAGOULA     SUNNY     76  46  34 CALM      30.04F
STENNIS ARPT*  SUNNY     75  48  38 CALM      30.05F

$$

COASTAL OBSERVATIONS
LAKE AND NEARSHORE STATIONS

STATION/POSITION TIME  TEMP    WIND        PRES    WAVE
                       AIR SEA DIR/SP/G            HT/PER
                 (UTC) (F)     (DEG/KT/KT) (MB)    (FT/S)
PASCAGOULA       2100   73     190/  6/  8 1017.0
WAVELAND YACHT   2100   71     160/  8/  9 1016.9
GRAND ISLE       2100   74 78   70/ 10/ 15 1017.6
SOUTHWEST PASS   2100   84 85              1017.1
NEW CANAL        2100   72 73   60/  6/  7 1018.1
SHELL BEACH      2100   71 70   60/  9/ 11 1017.5

OFFSHORE STATIONS

STATION/POSITION TIME  TEMP    WIND        PRES    WAVE
                       AIR SEA DIR/SP/G            HT/PER
                 (UTC) (F)     (DEG/KT/KT) (MB)    (FT/S)
64 S DAUPHIN ISL 1958   73 80   70/ 10/ 14 1017.6    3/ 6

$$




USA.gov is the U.S. government's official web portal to all federal, state and local government web resources and services.